TimeEST,TemperatureF,Dew PointF,Humidity,Sea Level PressureIn,VisibilityMPH,Wind Direction,Wind SpeedMPH,Gust SpeedMPH,PrecipitationIn,Events,Conditions,WindDirDegrees,DateUTC
12:56 AM,33.1,15.1,48,29.86,10.0,West,12.7,-,N/A,,Scattered Clouds,280,2013-02-20 05:56:00
1:56 AM,32.0,12.9,45,29.87,10.0,WNW,20.7,34.5,N/A,,Mostly Cloudy,300,2013-02-20 06:56:00
2:56 AM,30.9,14.0,50,29.88,10.0,West,11.5,18.4,N/A,,Overcast,260,2013-02-20 07:56:00
3:56 AM,30.0,16.0,56,29.88,10.0,WNW,9.2,-,N/A,,Overcast,290,2013-02-20 08:56:00
7:56 AM,26.1,12.9,58,29.99,10.0,WNW,19.6,27.6,N/A,,Overcast,300,2013-02-20 12:56:00
8:46 AM,24.8,15.8,69,30.00,1.8,WNW,13.8,20.7,0.00,Snow,Light Snow,290,2013-02-20 13:46:00
8:56 AM,24.1,16.0,71,30.02,1.8,WNW,12.7,19.6,0.00,Snow,Light Snow,300,2013-02-20 13:56:00
9:02 AM,24.8,15.8,69,30.00,3.0,WNW,13.8,-,0.00,Snow,Light Snow,290,2013-02-20 14:02:00
9:14 AM,24.8,12.2,59,30.00,10.0,WNW,15.0,24.2,0.00,,Mostly Cloudy,300,2013-02-20 14:14:00
9:56 AM,27.0,14.0,58,30.01,10.0,West,10.4,18.4,0.00,,Mostly Cloudy,280,2013-02-20 14:56:00
10:56 AM,28.0,9.0,45,30.00,10.0,WNW,19.6,28.8,N/A,,Mostly Cloudy,300,2013-02-20 15:56:00
11:56 AM,28.0,10.9,49,30.00,10.0,West,18.4,28.8,N/A,,Overcast,280,2013-02-20 16:56:00
12:56 PM,28.9,9.0,43,30.00,10.0,West,15.0,28.8,N/A,,Overcast,270,2013-02-20 17:56:00
2:56 PM,28.0,10.0,47,30.02,10.0,West,18.4,24.2,N/A,,Overcast,280,2013-02-20 19:56:00
4:56 PM,27.0,9.0,47,30.06,10.0,WNW,17.3,23.0,N/A,,Overcast,290,2013-02-20 21:56:00
5:56 PM,27.0,10.0,49,30.08,10.0,WNW,17.3,25.3,N/A,,Overcast,290,2013-02-20 22:56:00
6:56 PM,26.1,10.0,51,30.10,10.0,West,16.1,20.7,N/A,,Overcast,270,2013-02-20 23:56:00
7:56 PM,25.0,9.0,51,30.11,10.0,WNW,18.4,26.5,N/A,,Clear,290,2013-02-21 00:56:00
8:56 PM,25.0,8.1,49,30.10,10.0,WNW,17.3,28.8,N/A,,Clear,300,2013-02-21 01:56:00
9:56 PM,24.1,8.1,51,30.12,10.0,WNW,13.8,19.6,N/A,,Mostly Cloudy,290,2013-02-21 02:56:00
11:56 PM,24.1,9.0,53,30.13,10.0,WNW,12.7,21.9,N/A,,Overcast,290,2013-02-21 04:56:00